Orbital Elements at Epoch 2459200.5 (2020-Dec-17.0) TDB
Reference: JPL 16 (heliocentric ecliptic J2000)
Element | Value | Uncertainty (1-sigma) | Units |
e | .1789655479525528 | 2.8827e-08 | |
a | 2.342298786079839 | 1.1132e-08 | au |
q | 1.923108000360461 | 6.6378e-08 | au |
i | 4.480836193772471 | 3.3518e-06 | deg |
node | 277.7862818035201 | 5.579e-05 | deg |
peri | 352.8498451884972 | 5.7125e-05 | deg |
M | 108.3539257029864 | 1.3404e-05 | deg |
tp | 2458806.402194368386 (2019-Nov-18.90219437) | 4.7635e-05 | TDB |
period | 1309.368434109913 3.58 | 9.3343e-06 2.556e-08 | d yr |
n | .2749417128302181 | 1.96e-09 | deg/d |
Q | 2.761489571799217 | 1.3124e-08 | au |
|
| | Orbit Determination Parameters
Additional Information
|